TimeCDT,TemperatureF,Dew PointF,Humidity,Sea Level PressureIn,VisibilityMPH,Wind Direction,Wind SpeedMPH,Gust SpeedMPH,PrecipitationIn,Events,Conditions,WindDirDegrees,DateUTC
12:53 AM,73.9,66.9,79,30.18,10.0,ESE,10.4,-,N/A,,Partly Cloudy,110,2013-10-26 05:53:00
1:53 AM,73.9,66.9,79,30.18,10.0,ESE,9.2,-,N/A,,Partly Cloudy,120,2013-10-26 06:53:00
2:53 AM,73.9,66.9,79,30.17,10.0,ESE,8.1,-,N/A,,Clear,110,2013-10-26 07:53:00
3:53 AM,73.9,66.9,79,30.15,10.0,ESE,8.1,-,N/A,,Clear,120,2013-10-26 08:53:00
4:53 AM,73.9,66.0,76,30.14,10.0,SE,8.1,-,N/A,,Clear,130,2013-10-26 09:53:00
5:53 AM,73.9,66.9,79,30.14,10.0,SE,9.2,-,N/A,,Clear,130,2013-10-26 10:53:00
6:53 AM,73.0,66.9,81,30.15,10.0,SE,6.9,-,N/A,,Clear,130,2013-10-26 11:53:00
7:53 AM,73.9,68.0,82,30.16,10.0,ESE,8.1,-,N/A,,Clear,120,2013-10-26 12:53:00
8:53 AM,75.9,66.9,74,30.17,10.0,ESE,10.4,-,N/A,,Clear,120,2013-10-26 13:53:00
9:53 AM,79.0,66.9,66,30.19,10.0,SE,11.5,-,N/A,,Partly Cloudy,130,2013-10-26 14:53:00
10:53 AM,81.0,66.9,62,30.20,10.0,SE,13.8,-,N/A,,Partly Cloudy,130,2013-10-26 15:53:00
11:53 AM,79.0,68.0,69,30.20,10.0,SE,11.5,-,N/A,,Mostly Cloudy,140,2013-10-26 16:53:00
12:53 PM,82.0,66.9,60,30.18,10.0,SE,15.0,-,N/A,,Clear,140,2013-10-26 17:53:00
1:53 PM,82.0,68.0,62,30.16,10.0,SE,16.1,-,N/A,,Partly Cloudy,140,2013-10-26 18:53:00
2:53 PM,81.0,68.0,65,30.13,10.0,SE,11.5,-,N/A,,Overcast,130,2013-10-26 19:53:00
3:53 PM,82.0,68.0,62,30.12,10.0,SE,11.5,-,N/A,,Overcast,140,2013-10-26 20:53:00
4:53 PM,79.0,66.0,64,30.11,10.0,SE,13.8,-,N/A,,Mostly Cloudy,140,2013-10-26 21:53:00
5:53 PM,78.1,68.0,71,30.09,10.0,SE,8.1,-,N/A,,Clear,140,2013-10-26 22:53:00
6:53 PM,75.9,69.1,79,30.09,10.0,SSE,8.1,-,N/A,,Clear,150,2013-10-26 23:53:00
7:53 PM,75.0,69.1,82,30.08,10.0,SE,8.1,-,N/A,,Clear,140,2013-10-27 00:53:00
8:53 PM,75.0,69.1,82,30.09,10.0,SSE,8.1,-,N/A,,Clear,150,2013-10-27 01:53:00
9:53 PM,75.0,69.1,82,30.09,10.0,SSE,6.9,-,N/A,,Clear,150,2013-10-27 02:53:00
10:53 PM,75.0,69.1,82,30.09,10.0,SSE,5.8,-,N/A,,Clear,150,2013-10-27 03:53:00
11:53 PM,73.9,69.1,85,30.07,10.0,SSE,5.8,-,N/A,,Clear,160,2013-10-27 04:53:00